轨道通信卫星FM107星 (ORBCOMM FM107)

导读 | 星芒AI

ORBCOMM FM107 是一颗由 ORBCOMM 公司运营的低轨通信卫星,主要用于物联网(IoT)和机器对机器(M2M)通信。该卫星运行在近地轨道,支持全球范围内的远程数据传输,适用于物流跟踪、资产管理、环境监测等应用。FM107 采用先进的通信技术,提供低功耗、广覆盖的连接解决方案,是 ORBCOMM 卫星网络的重要组成部分,助力实现全球范围的智能连接与数据管理。

基本信息
目录编号:
40087
目录名称:
ORBCOMM FM 107
国际标识:
2014-040B
轨道中心:
EARTH
卫星名称:
轨道通信卫星FM107星
卫星全名:
轨道通信卫星FM107星 (ORBCOMM FM107)
卫星状态:
在轨 (已飞行4121 天)
发射日期:
2014-07-14 UTC
国别 :
(ORB)
星等 :
--
轨道信息
数据来源 国际轨道数据 AOE轨道数据
星历时间 2025-10-25T13:56:48+0800
15小时前
查看轨道信息
2025-10-25T17:00:00+0800
12小时前
查看轨道信息
半长轴 7076.205km 7076.214km
偏心率 0.0001124 0.0000145
轨道倾角 47.004° 47.003°
近地点辐角 181.114° 197.198°
升交点赤经 122.856° 122.253°
平近点角 178.975° 111.467°
近地点 697.274km 697.976km
远地点 698.866km 698.182km
周期 98.733分钟 98.733分钟
每日圈数 14.584859 14.584831
详细信息
固有亮度:
8
最大亮度:
6.7
平衡模式:
三轴稳定
覆盖范围:
全球
运营商:
轨道通信公司
运营商所在国:
美国
使用方式:
暂无
卫星简介
轨道通信FM(Orbcomm FM)是一系列低地球轨道通信卫星,由美国卫星通信公司 Orbcomm运营。 截至2015年12月,已有63颗此类卫星绕地球运行。该卫星仍在工作。
2D轨道图
3D轨道图
轨道高度分析图
轨道倾角分析图
轨道综合分析图
查看轨道综合分析图